Starlink 3517

operational
NORAD ID: 51735 Int'l Des: 2022-016 Owner: SPXS Country: US Constellation: starlink
LEOCIRCULAR

Starlink 3517について

説明を読み込み中...

リアルタイム位置

3D地球を読み込み中...

次回通過

高度履歴

Altitude vs Time

uPlot chart will show altitude changes over time

軌道要素

1 51735U 22016X 25260.64042620 -.00000031 00000-0 16116-4 0 9995
2 51735 53.2185 15.9700 0001369 83.6470 276.4679 15.08836159197448
Epoch: Sep 17, 2025 • Age: 13 hours

現在のステータス

高度 539.8 km
速度 7.59 km/s
衛星直下点 8.54°N, 117.14°E
打ち上げ日 Feb 21, 2022
運用期間 3.5 years
タイプ internet

技術仕様

分類 Payload
質量 297.00 kg
乾燥質量 275.00 kg
総質量 297.00 kg
長さ 0.20 m
直径 2.80 m
スパン 9.00 m
形状 Box + pan
製造者 SPXS
バスタイプ Starlink
フェーズステータス In Orbit
所有者/国 SPXS/US

大規模コンステレーション

Loading constellations...